• In Germany
  • List of Countries
  • For 7 days
  • Water Temperature
  • Satellite Maps
  • Weather Map
  • Weather Widgets
  • user-avatar
    Login

    Hourly Weather Phenian

    Today, 20 August, Sunday

    Time Temperature Precipitation Wind Pressure Humidity
    00:00 +23°C° 0.2 mm 2 mps 757 mmHg 93%
    01:00 +23°C° 0.2 mm 2 mps 757 mmHg 93%
    02:00 +23°C° 0 mm 2 mps 757 mmHg 93%
    03:00 +23°C° 0.1 mm 2 mps 756 mmHg 93%
    04:00 +21°C° 0.1 mm 2 mps 756 mmHg 93%
    05:00 +21°C° 0.1 mm 2 mps 756 mmHg 94%
    06:00 +23°C° 0.6 mm 2 mps 756 mmHg 93%
    07:00 +22°C° 0.6 mm 3 mps 756 mmHg 92%
    08:00 +24°C° 0 mm 3 mps 756 mmHg 91%
    09:00 +25°C° 1.1 mm 3 mps 756 mmHg 91%
    10:00 +25°C° 1.1 mm 3 mps 755 mmHg 90%
    11:00 +25°C° 1.1 mm 4 mps 755 mmHg 90%
    12:00 +25°C° 2.5 mm 4 mps 755 mmHg 91%
    13:00 +25°C° 2.5 mm 4 mps 754 mmHg 92%
    14:00 +24°C° 0 mm 3 mps 754 mmHg 94%
    15:00 +24°C° 2.8 mm 3 mps 754 mmHg 94%
    16:00 +23°C° 2.8 mm 4 mps 754 mmHg 94%
    17:00 +23°C° 2.8 mm 4 mps 754 mmHg 95%
    18:00 +23°C° 2.8 mm 4 mps 754 mmHg 95%
    19:00 +23°C° 2.8 mm 4 mps 754 mmHg 95%
    20:00 +23°C° 2.8 mm 4 mps 753 mmHg 95%
    21:00 +23°C° 2.5 mm 4 mps 753 mmHg 95%
    22:00 +23°C° 2.5 mm 4 mps 753 mmHg 95%
    23:00 +23°C° 2.5 mm 4 mps 753 mmHg 95%

    Tomorrow, 21 August, Monday

    Time Temperature Precipitation Wind Pressure Humidity
    00:00 +23°C° 0.4 mm 4 mps 753 mmHg 95%
    01:00 +23°C° 0.4 mm 4 mps 753 mmHg 95%
    02:00 +23°C° 0.4 mm 4 mps 752 mmHg 94%
    03:00 +23°C° 0 mm 4 mps 752 mmHg 94%
    04:00 +23°C° 0 mm 4 mps 752 mmHg 94%
    05:00 +23°C° 0 mm 4 mps 752 mmHg 95%
    06:00 +25°C° 0.1 mm 4 mps 752 mmHg 92%
    07:00 +26°C° 0.1 mm 4 mps 752 mmHg 90%
    08:00 +27°C° 0.1 mm 5 mps 752 mmHg 88%
    09:00 +28°C° 0.8 mm 5 mps 752 mmHg 87%
    10:00 +28°C° 0.8 mm 5 mps 752 mmHg 85%
    11:00 +29°C° 0.8 mm 5 mps 753 mmHg 84%
    12:00 +29°C° 1 mm 5 mps 752 mmHg 83%
    13:00 +29°C° 1 mm 5 mps 752 mmHg 83%
    14:00 +30°C° 1 mm 5 mps 752 mmHg 82%
    15:00 +29°C° 1 mm 4 mps 752 mmHg 84%
    16:00 +29°C° 1 mm 4 mps 752 mmHg 86%
    17:00 +28°C° 1 mm 3 mps 752 mmHg 88%
    18:00 +27°C° 0.5 mm 3 mps 753 mmHg 90%
    19:00 +26°C° 0.5 mm 3 mps 753 mmHg 92%
    20:00 +25°C° 0.5 mm 2 mps 754 mmHg 95%
    21:00 +25°C° 0.1 mm 2 mps 754 mmHg 95%
    22:00 +25°C° 0.1 mm 2 mps 754 mmHg 95%
    23:00 +25°C° 0.1 mm 2 mps 754 mmHg 96%

    Day after tomorrow, 22 August, Tuesday

    Time Temperature Precipitation Wind Pressure Humidity
    00:00 +24°C° 0.1 mm 2 mps 754 mmHg 96%
    01:00 +24°C° 0.1 mm 2 mps 754 mmHg 96%
    02:00 +24°C° 0.1 mm 2 mps 754 mmHg 96%
    03:00 +24°C° 0.2 mm 2 mps 755 mmHg 96%
    04:00 +24°C° 0.2 mm 2 mps 755 mmHg 96%
    05:00 +24°C° 0.2 mm 1 mps 755 mmHg 97%
    06:00 +25°C° 0.1 mm 1 mps 755 mmHg 95%
    07:00 +26°C° 0.1 mm 2 mps 756 mmHg 93%
    08:00 +27°C° 0.1 mm 2 mps 756 mmHg 92%
    09:00 +28°C° 0.5 mm 2 mps 756 mmHg 89%
    10:00 +29°C° 0.5 mm 2 mps 756 mmHg 86%
    11:00 +29°C° 0.5 mm 2 mps 756 mmHg 83%
    12:00 +30°C° 0.9 mm 3 mps 756 mmHg 82%
    13:00 +30°C° 0.9 mm 3 mps 755 mmHg 81%
    14:00 +30°C° 0.9 mm 3 mps 755 mmHg 80%
    15:00 +30°C° 0.1 mm 3 mps 755 mmHg 82%
    16:00 +29°C° 0.1 mm 3 mps 755 mmHg 85%
    17:00 +29°C° 0.1 mm 3 mps 755 mmHg 87%
    18:00 +27°C° 0 mm 2 mps 756 mmHg 89%
    19:00 +26°C° 0 mm 1 mps 756 mmHg 92%
    20:00 +25°C° 0 mm 1 mps 757 mmHg 94%
    21:00 +25°C° 0 mm 1 mps 757 mmHg 94%
    22:00 +25°C° 0 mm 1 mps 757 mmHg 95%
    23:00 +25°C° 0 mm 1 mps 757 mmHg 95%

    23 August, Wednesday

    Time Temperature Precipitation Wind Pressure Humidity
    00:00 +25°C° 0 mm 1 mps 757 mmHg 95%
    01:00 +25°C° 0 mm 1 mps 757 mmHg 95%
    02:00 +25°C° 0 mm 1 mps 757 mmHg 95%
    03:00 +25°C° 0 mm 1 mps 757 mmHg 95%
    04:00 +24°C° 0 mm 1 mps 757 mmHg 95%
    05:00 +24°C° 0 mm 1 mps 757 mmHg 95%
    06:00 +25°C° 0 mm 1 mps 757 mmHg 92%
    07:00 +26°C° 0 mm 1 mps 757 mmHg 89%
    08:00 +27°C° 0 mm 1 mps 757 mmHg 86%
    09:00 +28°C° 0.1 mm 2 mps 757 mmHg 82%
    10:00 +30°C° 0.1 mm 2 mps 757 mmHg 77%
    11:00 +31°C° 0.1 mm 2 mps 757 mmHg 73%
    12:00 +30°C° 0.9 mm 2 mps 756 mmHg 77%
    13:00 +30°C° 0.9 mm 2 mps 756 mmHg 80%
    14:00 +30°C° 0.9 mm 2 mps 755 mmHg 84%
    15:00 +29°C° 1.8 mm 2 mps 755 mmHg 87%
    16:00 +28°C° 1.8 mm 2 mps 755 mmHg 91%
    17:00 +27°C° 1.8 mm 2 mps 755 mmHg 94%
    18:00 +27°C° 1.8 mm 2 mps 755 mmHg 95%
    19:00 +27°C° 1.8 mm 2 mps 755 mmHg 95%
    20:00 +26°C° 1.8 mm 2 mps 755 mmHg 96%
    21:00 +26°C° 2.9 mm 2 mps 755 mmHg 97%
    22:00 +26°C° 2.9 mm 2 mps 755 mmHg 97%
    23:00 +26°C° 2.9 mm 2 mps 754 mmHg 97%

    24 August, Thursday

    Time Temperature Precipitation Wind Pressure Humidity
    00:00 +27°C° 3.1 mm 3 mps 754 mmHg 97%
    01:00 +27°C° 3.1 mm 3 mps 753 mmHg 97%
    02:00 +27°C° 3.1 mm 4 mps 752 mmHg 97%
    03:00 +27°C° 1.1 mm 5 mps 752 mmHg 97%
    04:00 +27°C° 1.1 mm 5 mps 751 mmHg 96%
    05:00 +28°C° 1.1 mm 6 mps 751 mmHg 96%
    06:00 +27°C° 4.3 mm 6 mps 751 mmHg 96%
    07:00 +27°C° 4.3 mm 6 mps 751 mmHg 96%
    08:00 +27°C° 4.3 mm 5 mps 751 mmHg 96%
    09:00 +27°C° 3.5 mm 5 mps 751 mmHg 94%
    10:00 +27°C° 3.5 mm 4 mps 752 mmHg 93%
    11:00 +27°C° 3.5 mm 4 mps 752 mmHg 92%
    12:00 +28°C° 0.1 mm 4 mps 752 mmHg 84%
    13:00 +29°C° 0.1 mm 4 mps 752 mmHg 77%
    14:00 +30°C° 0.1 mm 4 mps 752 mmHg 70%
    15:00 +29°C° 0 mm 4 mps 752 mmHg 71%
    16:00 +28°C° 0 mm 4 mps 752 mmHg 73%
    17:00 +27°C° 0 mm 4 mps 753 mmHg 74%
    18:00 +25°C° 0 mm 3 mps 753 mmHg 75%
    19:00 +22°C° 0 mm 3 mps 754 mmHg 77%
    20:00 +20°C° 0 mm 2 mps 754 mmHg 78%
    21:00 +20°C° 0 mm 2 mps 755 mmHg 78%
    22:00 +19°C° 0 mm 2 mps 755 mmHg 78%
    23:00 +19°C° 0 mm 2 mps 755 mmHg 78%

    25 August, Friday

    Time Temperature Precipitation Wind Pressure Humidity
    00:00 +18°C° 0 mm 2 mps 755 mmHg 78%
    01:00 +18°C° 0 mm 2 mps 755 mmHg 77%
    02:00 +18°C° 0 mm 2 mps 755 mmHg 77%
    03:00 +18°C° 0 mm 1 mps 755 mmHg 77%
    04:00 +18°C° 0 mm 1 mps 755 mmHg 77%
    05:00 +18°C° 0 mm 1 mps 755 mmHg 77%
    06:00 +19°C° 0 mm 1 mps 755 mmHg 73%
    07:00 +21°C° 0 mm 1 mps 755 mmHg 70%
    08:00 +21°C° 0 mm 0 mps 755 mmHg 66%
    09:00 +24°C° 0 mm 1 mps 755 mmHg 64%
    10:00 +26°C° 0 mm 1 mps 755 mmHg 61%
    11:00 +27°C° 0 mm 2 mps 755 mmHg 59%
    12:00 +27°C° 0 mm 3 mps 754 mmHg 60%
    13:00 +28°C° 0 mm 3 mps 754 mmHg 61%
    14:00 +28°C° 0 mm 4 mps 753 mmHg 63%
    15:00 +27°C° 0 mm 4 mps 754 mmHg 68%
    16:00 +27°C° 0 mm 3 mps 754 mmHg 73%
    17:00 +26°C° 0 mm 3 mps 754 mmHg 78%
    18:00 +25°C° 0 mm 2 mps 754 mmHg 81%
    19:00 +24°C° 0 mm 2 mps 754 mmHg 84%
    20:00 +23°C° 0 mm 2 mps 754 mmHg 87%
    21:00 +23°C° 0 mm 2 mps 754 mmHg 87%
    22:00 +22°C° 0 mm 3 mps 754 mmHg 88%
    23:00 +21°C° 0 mm 3 mps 753 mmHg 88%
    Show more